User: anonymous   Login
Location: Koslow
(50.3020°N, 18.5663°E)
Time: 15:31:04
(UTC+00:00)
Language:

STARLINK-1357 - Orbit

View from above orbital plane
View from above orbital plane
View from above satellite
View from above satellite

Ground track
Ground track

The orbit data is extracted from the following two-line orbital elements,

1 45565U 20025AL  20225.50001157  .00021033  00000-0  14578-2 0  9990
2 45565  52.9995 222.9285 0001432  71.6468 214.8719 15.05595365 18036
Epoch (UTC): 12 August 2020 12:00:01
Eccentricity: 0.0001432
inclination: 52.9995°
perigee height: 548 km
apogee height: 550 km
right ascension of ascending node: 222.9285°
argument of perigee: 71.6468°
revolutions per day: 15.05595365
mean anomaly at epoch: 214.8719°
orbit number at epoch: 1803

The dashed part of the orbit path shows where the satellite is in the earth's shadow,  

DLR